"SCET";"TARGET";"ELECTRON_DENSITY";"ERROR_FLAG";"ELECTRON_DENSITY_ERROR";"FREQ_FCE";"MEASURED_VALUE";"MEASURED_ITEM";"FREQ_PLASMA";"FREQ_UPPER_HYBRID";"FREQ_R_EQUALS_ZERO";"FREQ_L_EQUALS_ZERO";"ORBIT_NUMBER";"SATURN_RADIUS";"SATURN_IAU_LONGITUDE";"SATURN_SLS4_S_LONGITUDE";"SATURN_SLS4_N_LONGITUDE";"SATURN_SLS5_S_LONGITUDE";"SATURN_SLS5_N_LONGITUDE";"SATURN_LOCAL_TIME";"SATURN_KRONOGRAPHIC_LATITUDE";"SATURN_MAGNETIC_LATITUDE";"SATURN_L";"SATURN_L_OFFSET";"SATURN_SOLAR_EQUATORIAL_X";"SATURN_SOLAR_EQUATORIAL_Y";"SATURN_SOLAR_EQUATORIAL_Z";"SATURN_ALTITUDE";"ENCELADUS_ENCOUNTER_NUMBER";"ENCELADUS_RADIUS";"ENCELADUS_COROTATIONAL_X";"ENCELADUS_COROTATIONAL_Y";"ENCELADUS_COROTATIONAL_Z";"ENCELADUS_TRUE_ANOMALY";"ENCELADUS_PERIAPSIS_TIME";"JUPITER_RADIUS";"JUPITER_SYSTEMIII_LONGITUDE";"JUPITER_MAGNETIC_LATITUDE";"JUPITER_MAGNETIC_LOCAL_TIME";"JUPITER_L";"IO_PHASE";"EARTH_RADIUS";"EARTH_MAGNETIC_LATITUDE";"EARTH_LOCAL_TIME";"EARTH_L"
"[UTC]";"[0=Saturn, 1=Enceladus, 2=Jupiter, 3=Earth]";"[cm-3]";"[0=automated, 1=manual]";"[normalized density error]";"[Hz]";"[Hz]";"[0=upper hybrid frequency, 1=plasma frequency cutoff]";"[Hz]";"[Hz]";"[Hz]";"[Hz}";"[0, A, B, C, 3, 4, ... , 292, 293]";"[Rs where 1Rs=60268km]";"[degrees]";"[degrees]";"[degrees]";"[degrees]";"[degrees]";"[hours]";"[degrees]";"[degrees where offset=2293km north]";"[Rs where 1Rs=60268km]";"[Rs where 1Rs=60268km and offset=2293km north]";"[Rs where 1Rs=60268km]";"[Rs where 1Rs=60268km]";"[Rs where 1Rs=60268km]";"[km where ellipsoid a,b=60268km and c=54364km]";"[E0, E1, E2, ... , E21, E22]";"[Renc where 1Renc=252.1km]";"[Renc where 1Renc=252.1km]";"[Renc where 1Renc=252.1km]";"[Renc where 1Renc=252.1km]";"[degrees]";"[UTC]";"[Rj where 1Rj=71492km]";"[degrees]";"[degrees using JRM09 model]";"[hours using JRM09 model]";"[Rj where 1Rj=71492km]";"[degrees]";"[Re where 1Re=6378.1366km]";"[degrees]";"[hours]";"[Re where 1Re=6378.1366km]"
2008-03-23T08:50:46.596Z;0;9.2110e+00;0;     0.276;  7701.540;  28321.029; 0;  27253.752;  28321.029;  31375.221;  23673.682; 62;   4.350; 152.791;  78.389; 248.380;  70.108; 248.616;  22.418;  15.850;  15.367;   4.701;   4.336;  -3.831;   1.684;   1.188;;;;;;;;;;;;;;;;;;
2008-03-23T08:51:18.596Z;0;9.0520e+00;0;     0.289;  7701.540;  28094.008; 0;  27017.764;  28094.008;  31141.574;  23440.035; 62;   4.347; 153.029;  78.622; 248.619;  70.341; 248.856;  22.422;  15.766;  15.282;   4.694;   4.333;  -3.832;   1.680;   1.181;;;;;;;;;;;;;;;;;;
2008-03-23T08:51:50.596Z;0;8.9970e+00;0;     0.338;  7701.540;  28014.865; 0;  26935.459;  28014.865;  31060.096;  23358.555; 62;   4.344; 153.267;  78.855; 248.859;  70.574; 249.095;  22.426;  15.681;  15.197;   4.687;   4.330;  -3.833;   1.675;   1.174;;;;;;;;;;;;;;;;;;
2008-03-23T08:52:22.596Z;0;8.9650e+00;0;     0.287;  7713.384;  27971.674; 0;  26887.139;  27971.674;  31019.025;  23305.641; 62;   4.341; 153.505;  79.088; 249.099;  70.806; 249.336;  22.430;  15.596;  15.112;   4.680;   4.327;  -3.834;   1.670;   1.167;;;;;;;;;;;;;;;;;;
2008-03-23T08:52:54.595Z;0;9.0950e+00;0;     0.282;  7713.384;  28158.199; 0;  27081.135;  28158.199;  31211.070;  23497.686; 62;   4.339; 153.743;  79.322; 249.339;  71.038; 249.576;  22.435;  15.512;  15.026;   4.673;   4.324;  -3.835;   1.666;   1.160;;;;;;;;;;;;;;;;;;
2008-03-23T08:53:58.595Z;0;8.8500e+00;0;     0.261;  7725.508;  27809.531; 0;  26714.912;  27809.531;  30855.482;  23129.975; 62;   4.333; 154.218;  79.788; 249.818;  71.502; 250.057;  22.443;  15.341;  14.855;   4.659;   4.319;  -3.836;   1.657;   1.146;;;;;;;;;;;;;;;;;;
2008-03-23T08:54:30.595Z;0;8.8270e+00;0;     0.277;  7737.716;  27779.318; 0;  26679.924;  27779.318;  30827.834;  23090.117; 62;   4.330; 154.456;  80.021; 250.057;  71.733; 250.298;  22.447;  15.256;  14.769;   4.652;   4.316;  -3.837;   1.652;   1.139;;;;;;;;;;;;;;;;;;
2008-03-23T08:55:02.594Z;0;8.7500e+00;0;     0.297;  7749.588;  27669.914; 0;  26562.531;  27669.914;  30718.453;  22968.865; 62;   4.327; 154.694;  80.254; 250.297;  71.964; 250.540;  22.451;  15.171;  14.683;   4.645;   4.313;  -3.838;   1.647;   1.132;;;;;;;;;;;;;;;;;;
2008-03-23T08:55:34.594Z;0;9.2230e+00;0;     0.274;  7749.588;  28351.152; 0;  27271.445;  28351.152;  31420.135;  23670.547; 62;   4.324; 154.931;  80.487; 250.536;  72.195; 250.781;  22.455;  15.085;  14.597;   4.639;   4.310;  -3.839;   1.643;   1.125;;;;;;;;;;;;;;;;;;
2008-03-23T08:56:06.594Z;0;9.0380e+00;0;     0.253;  7761.488;  28090.018; 0;  26996.451;  28090.018;  31154.697;  23393.209; 62;   4.322; 155.169;  80.720; 250.776;  72.425; 251.023;  22.460;  14.999;  14.511;   4.632;   4.308;  -3.840;   1.638;   1.118;;;;;;;;;;;;;;;;;;
2008-03-23T08:57:10.594Z;0;9.0720e+00;0;     0.286;  7773.668;  28141.916; 0;  27046.951;  28141.916;  31211.641;  23437.971; 62;   4.316; 155.644;  81.186; 251.255;  72.885; 251.508;  22.468;  14.828;  14.338;   4.618;   4.302;  -3.841;   1.629;   1.104;;;;;;;;;;;;;;;;;;
2008-03-23T08:57:42.593Z;0;9.2260e+00;0;     0.245;  7773.668;  28362.500; 0;  27276.391;  28362.500;  31438.766;  23665.098; 62;   4.313; 155.882;  81.419; 251.494;  73.114; 251.750;  22.472;  14.742;  14.252;   4.612;   4.299;  -3.842;   1.624;   1.097;;;;;;;;;;;;;;;;;;
2008-03-23T08:58:14.593Z;0;8.9580e+00;0;     0.177;  7785.736;  27982.344; 0;  26877.387;  27982.344;  31050.709;  23264.973; 62;   4.310; 156.119;  81.651; 251.733;  73.343; 251.993;  22.476;  14.655;  14.165;   4.605;   4.296;  -3.843;   1.620;   1.090;;;;;;;;;;;;;;;;;;
2008-03-23T08:58:46.593Z;0;9.3310e+00;0;     0.280;  7785.736;  28514.867; 0;  27431.369;  28514.867;  31599.084;  23813.348; 62;   4.307; 156.357;  81.884; 251.973;  73.572; 252.236;  22.480;  14.569;  14.078;   4.598;   4.294;  -3.844;   1.615;   1.083;;;;;;;;;;;;;;;;;;
2008-03-23T08:59:18.593Z;0;9.5830e+00;0;     0.264;  7797.888;  28871.824; 0;  27798.834;  28871.824;  31969.871;  24171.982; 62;   4.305; 156.594;  82.117; 252.212;  73.800; 252.480;  22.485;  14.483;  13.991;   4.592;   4.291;  -3.844;   1.610;   1.076;;;;;;;;;;;;;;;;;;
2008-03-23T08:59:50.592Z;0;8.9140e+00;0;     0.148;  7797.888;  27922.246; 0;  26811.281;  27922.246;  30992.236;  23194.350; 62;   4.302; 156.832;  82.350; 252.451;  74.028; 252.724;  22.489;  14.396;  13.904;   4.585;   4.288;  -3.845;   1.606;   1.069;;;;;;;;;;;;;;;;;;
2008-03-23T09:00:22.592Z;0;8.6610e+00;0;     0.255;  7811.160;  27557.350; 0;  26427.131;  27557.350;  30619.750;  22808.590; 62;   4.299; 157.069;  82.582; 252.690;  74.258; 252.965;  22.493;  14.309;  13.817;   4.579;   4.286;  -3.846;   1.601;   1.062;;;;;;;;;;;;;;;;;;
2008-03-23T09:00:54.592Z;0;8.8440e+00;0;     0.263;  7811.160;  27824.434; 0;  26705.521;  27824.434;  30895.180;  23084.020; 62;   4.296; 157.307;  82.815; 252.929;  74.488; 253.207;  22.497;  14.223;  13.730;   4.572;   4.283;  -3.847;   1.596;   1.055;;;;;;;;;;;;;;;;;;
2008-03-23T09:01:26.592Z;0;8.8920e+00;0;     0.252;  7823.592;  27897.420; 0;  26777.928;  27897.420;  30973.939;  23150.348; 62;   4.294; 157.544;  83.048; 253.169;  74.719; 253.448;  22.501;  14.136;  13.642;   4.566;   4.280;  -3.847;   1.592;   1.048;;;;;;;;;;;;;;;;;;
2008-03-23T09:01:58.592Z;0;8.7860e+00;0;     0.249;  7823.592;  27743.406; 0;  26617.438;  27743.406;  30815.145;  22991.553; 62;   4.291; 157.781;  83.280; 253.408;  74.949; 253.689;  22.506;  14.048;  13.555;   4.559;   4.277;  -3.848;   1.587;   1.041;;;;;;;;;;;;;;;;;;
2008-03-23T09:02:30.591Z;0;8.6540e+00;0;     0.210;  7835.884;  27554.260; 0;  26416.588;  27554.260;  30623.492;  22787.609; 62;   4.288; 158.018;  83.513; 253.647;  75.180; 253.930;  22.510;  13.961;  13.467;   4.553;   4.275;  -3.849;   1.582;   1.034;;;;;;;;;;;;;;;;;;
2008-03-23T09:03:02.591Z;0;8.8310e+00;0;     0.251;  7848.288;  27815.602; 0;  26685.428;  27815.602;  30896.555;  23048.268; 62;   4.285; 158.256;  83.745; 253.886;  75.410; 254.171;  22.514;  13.874;  13.379;   4.547;   4.272;  -3.849;   1.578;   1.027;;;;;;;;;;;;;;;;;;
2008-03-23T09:03:34.591Z;0;9.0180e+00;0;     0.255;  7848.288;  28085.932; 0;  26967.090;  28085.932;  31175.252;  23326.963; 62;   4.282; 158.493;  83.978; 254.125;  75.640; 254.412;  22.518;  13.786;  13.291;   4.540;   4.269;  -3.850;   1.573;   1.020;;;;;;;;;;;;;;;;;;
2008-03-23T09:04:06.591Z;0;8.9300e+00;0;     0.227;  7860.748;  27962.047; 0;  26834.395;  27962.047;  31051.078;  23190.330; 62;   4.280; 158.730;  84.210; 254.364;  75.870; 254.653;  22.522;  13.699;  13.203;   4.534;   4.267;  -3.851;   1.569;   1.013;;;;;;;;;;;;;;;;;;
2008-03-23T09:04:38.590Z;0;9.0630e+00;0;     0.311;  7860.748;  28153.826; 0;  27034.174;  28153.826;  31248.764;  23388.016; 62;   4.277; 158.967;  84.443; 254.603;  76.101; 254.894;  22.527;  13.611;  13.115;   4.528;   4.264;  -3.852;   1.564;   1.006;;;;;;;;;;;;;;;;;;
2008-03-23T09:07:18.589Z;0;9.3140e+00;0;     0.214;  7899.416;  28521.311; 0;  27405.555;  28521.311;  31638.416;  23739.000; 62;   4.263; 160.152;  85.604; 255.797;  77.251; 256.098;  22.548;  13.170;  12.672;   4.497;   4.250;  -3.855;   1.540;   0.971;;;;;;;;;;;;;;;;;;
2008-03-23T09:07:50.589Z;0;8.1920e+00;0;     0.328;  7899.416;  26888.434; 0;  25701.889;  26888.434;  29953.309;  22053.893; 62;   4.261; 160.389;  85.837; 256.036;  77.481; 256.338;  22.552;  13.082;  12.583;   4.491;   4.248;  -3.855;   1.536;   0.964;;;;;;;;;;;;;;;;;;
2008-03-23T09:08:22.589Z;0;8.8660e+00;0;     0.285;  7912.380;  27885.488; 0;  26739.385;  27885.488;  30986.656;  23074.277; 62;   4.258; 160.626;  86.069; 256.274;  77.711; 256.579;  22.556;  12.993;  12.493;   4.485;   4.245;  -3.856;   1.531;   0.957;;;;;;;;;;;;;;;;;;
2008-03-23T09:08:54.589Z;0;9.2660e+00;0;     0.244;  7912.380;  28456.885; 0;  27334.750;  28456.885;  31575.748;  23663.367; 62;   4.255; 160.863;  86.301; 256.513;  77.941; 256.820;  22.560;  12.904;  12.404;   4.478;   4.242;  -3.857;   1.526;   0.950;;;;;;;;;;;;;;;;;;
2008-03-23T09:09:58.588Z;0;9.6530e+00;0;     0.347;  7925.232;  29004.531; 0;  27900.779;  29004.531;  32143.387;  24218.154; 62;   4.250; 161.337;  86.765; 256.990;  78.401; 257.301;  22.569;  12.726;  12.225;   4.466;   4.237;  -3.858;   1.517;   0.936;;;;;;;;;;;;;;;;;;
2008-03-23T09:11:02.588Z;0;9.7770e+00;0;     0.365;  7950.853;  29183.479; 0;  28079.520;  29183.479;  32334.965;  24384.111; 62;   4.244; 161.810;  87.229; 257.467;  78.867; 257.776;  22.577;  12.548;  12.046;   4.455;   4.232;  -3.859;   1.508;   0.922;;;;;;;;;;;;;;;;;;
2008-03-23T09:13:10.587Z;0;9.3240e+00;0;     0.289;  7977.676;  28557.924; 0;  27421.008;  28557.924;  31698.449;  23720.773; 62;   4.234; 162.756;  88.157; 258.421;  79.801; 258.722;  22.594;  12.190;  11.685;   4.431;   4.221;  -3.861;   1.489;   0.894;;;;;;;;;;;;;;;;;;
2008-03-23T09:13:42.587Z;0;9.2940e+00;0;     0.274;  7977.676;  28514.512; 0;  27375.793;  28514.512;  31653.705;  23676.029; 62;   4.231; 162.993;  88.389; 258.659;  80.035; 258.958;  22.599;  12.100;  11.595;   4.425;   4.219;  -3.862;   1.484;   0.887;;;;;;;;;;;;;;;;;;
2008-03-23T09:14:14.586Z;0;9.2900e+00;0;     0.287;  7990.864;  28513.242; 0;  27370.625;  28513.242;  31656.137;  23665.271; 62;   4.228; 163.229;  88.621; 258.898;  80.269; 259.193;  22.603;  12.010;  11.504;   4.420;   4.216;  -3.862;   1.479;   0.880;;;;;;;;;;;;;;;;;;
2008-03-23T09:14:46.586Z;0;9.2610e+00;0;     0.277;  7990.864;  28471.994; 0;  27327.652;  28471.994;  31613.615;  23622.750; 62;   4.226; 163.466;  88.852; 259.136;  80.504; 259.429;  22.607;  11.919;  11.414;   4.414;   4.214;  -3.863;   1.474;   0.873;;;;;;;;;;;;;;;;;;
2008-03-23T09:15:50.586Z;0;1.0070e+01;0;     0.314;  8003.884;  29598.854; 0;  28496.139;  29598.854;  32777.723;  24773.838; 62;   4.220; 163.939;  89.316; 259.612;  80.974; 259.898;  22.616;  11.739;  11.232;   4.403;   4.209;  -3.864;   1.465;   0.858;;;;;;;;;;;;;;;;;;
2008-03-23T09:16:22.585Z;0;9.4930e+00;0;     0.314;  8017.184;  28806.725; 0;  27668.613;  28806.725;  31966.076;  23948.893; 62;   4.218; 164.175;  89.547; 259.850;  81.209; 260.132;  22.620;  11.648;  11.141;   4.397;   4.206;  -3.864;   1.460;   0.851;;;;;;;;;;;;;;;;;;
2008-03-23T09:16:54.585Z;0;1.0770e+01;0;     0.307;  8017.184;  30539.086; 0;  29467.957;  30539.086;  33747.949;  25730.766; 62;   4.215; 164.411;  89.779; 260.088;  81.445; 260.366;  22.624;  11.557;  11.050;   4.391;   4.203;  -3.865;   1.455;   0.844;;;;;;;;;;;;;;;;;;
2008-03-23T09:17:26.585Z;0;1.0300e+01;0;     0.198;  8030.708;  29924.008; 0;  28826.271;  29924.008;  33119.941;  25089.234; 62;   4.213; 164.648;  90.010; 260.327;  81.681; 260.600;  22.628;  11.467;  10.959;   4.386;   4.201;  -3.865;   1.451;   0.837;;;;;;;;;;;;;;;;;;
2008-03-23T09:17:58.585Z;0;9.9950e+00;0;     0.285;  8030.708;  29503.656; 0;  28389.672;  29503.656;  32687.580;  24656.871; 62;   4.210; 164.884;  90.242; 260.565;  81.917; 260.833;  22.633;  11.376;  10.867;   4.380;   4.198;  -3.866;   1.446;   0.830;;;;;;;;;;;;;;;;;;
2008-03-23T09:18:30.585Z;0;1.0560e+01;0;     0.215;  8045.072;  30268.018; 0;  29179.268;  30268.018;  33477.766;  25432.693; 62;   4.207; 165.120;  90.474; 260.803;  82.153; 261.066;  22.637;  11.285;  10.776;   4.375;   4.196;  -3.866;   1.441;   0.823;;;;;;;;;;;;;;;;;;
2008-03-23T09:19:02.584Z;0;1.0180e+01;0;     0.258;  8058.596;  29763.943; 0;  28652.248;  29763.943;  32963.477;  24904.879; 62;   4.205; 165.356;  90.705; 261.040;  82.390; 261.298;  22.641;  11.193;  10.684;   4.369;   4.193;  -3.867;   1.436;   0.816;;;;;;;;;;;;;;;;;;
2008-03-23T09:19:34.584Z;0;1.0750e+01;0;     0.251;  8058.596;  30532.096; 0;  29449.412;  30532.096;  33753.078;  25694.482; 62;   4.202; 165.592;  90.936; 261.278;  82.626; 261.531;  22.646;  11.102;  10.592;   4.364;   4.191;  -3.867;   1.432;   0.809;;;;;;;;;;;;;;;;;;
2008-03-23T09:20:06.584Z;0;1.0600e+01;0;     0.225;  8072.288;  30328.053; 0;  29234.037;  30328.053;  33547.488;  25475.199; 62;   4.200; 165.828;  91.168; 261.516;  82.862; 261.764;  22.650;  11.011;  10.500;   4.359;   4.188;  -3.867;   1.427;   0.802;;;;;;;;;;;;;;;;;;
2008-03-23T09:20:38.584Z;0;1.0630e+01;0;     0.232;  8072.288;  30369.445; 0;  29276.977;  30369.445;  33590.023;  25517.736; 62;   4.197; 166.064;  91.399; 261.754;  83.094; 262.001;  22.654;  10.919;  10.408;   4.353;   4.186;  -3.868;   1.422;   0.795;;;;;;;;;;;;;;;;;;
2008-03-23T09:21:10.583Z;0;1.0810e+01;0;     0.198;  8085.756;  30612.611; 0;  29525.455;  30612.611;  33843.840;  25758.084; 62;   4.194; 166.300;  91.630; 261.992;  83.325; 262.238;  22.658;  10.827;  10.316;   4.348;   4.183;  -3.868;   1.417;   0.788;;;;;;;;;;;;;;;;;;
2008-03-23T09:21:42.583Z;0;1.1600e+01;0;     0.225;  8085.756;  31636.352; 0;  30585.605;  31636.352;  34894.527;  26808.770; 62;   4.192; 166.536;  91.862; 262.230;  83.556; 262.476;  22.663;  10.735;  10.224;   4.342;   4.181;  -3.869;   1.413;   0.781;;;;;;;;;;;;;;;;;;
2008-03-23T09:22:14.583Z;0;1.1880e+01;0;     0.196;  8099.645;  31990.637; 0;  30948.289;  31990.637;  35261.961;  27162.318; 62;   4.189; 166.772;  92.093; 262.467;  83.787; 262.714;  22.667;  10.643;  10.131;   4.337;   4.178;  -3.869;   1.408;   0.774;;;;;;;;;;;;;;;;;;
2008-03-23T09:22:46.583Z;0;1.0690e+01;0;     0.196;  8099.645;  30461.531; 0;  29364.957;  30461.531;  33692.727;  25593.080; 62;   4.187; 167.008;  92.324; 262.705;  84.017; 262.953;  22.671;  10.551;  10.039;   4.332;   4.176;  -3.869;   1.403;   0.766;;;;;;;;;;;;;;;;;;
2008-03-23T09:23:18.583Z;0;1.0590e+01;0;     0.199;  8113.560;  30326.725; 0;  29221.232;  30326.725;  33558.270;  25444.709; 62;   4.184; 167.244;  92.555; 262.943;  84.247; 263.191;  22.676;  10.459;   9.946;   4.327;   4.173;  -3.870;   1.398;   0.759;;;;;;;;;;;;;;;;;;
2008-03-23T09:23:50.582Z;0;1.0730e+01;0;     0.181;  8113.560;  30512.400; 0;  29413.887;  30512.400;  33749.105;  25635.545; 62;   4.182; 167.480;  92.786; 263.180;  84.477; 263.430;  22.680;  10.367;   9.853;   4.321;   4.171;  -3.870;   1.393;   0.752;;;;;;;;;;;;;;;;;;
2008-03-23T09:24:22.582Z;0;1.1000e+01;0;     0.182;  8127.728;  30873.455; 0;  29784.396;  30873.455;  34124.223;  25996.496; 62;   4.179; 167.715;  93.017; 263.418;  84.706; 263.669;  22.684;  10.274;   9.760;   4.316;   4.168;  -3.870;   1.389;   0.745;;;;;;;;;;;;;;;;;;
2008-03-23T09:24:54.582Z;0;1.0670e+01;0;     0.209;  8127.728;  30440.404; 0;  29335.273;  30440.404;  33679.285;  25551.559; 62;   4.176; 167.951;  93.248; 263.655;  84.935; 263.908;  22.688;  10.182;   9.667;   4.311;   4.166;  -3.871;   1.384;   0.738;;;;;;;;;;;;;;;;;;
2008-03-23T09:25:26.582Z;0;1.2030e+01;0;     0.184;  8142.147;  32188.863; 0;  31142.066;  32188.863;  35478.109;  27335.963; 62;   4.174; 168.187;  93.479; 263.893;  85.164; 264.148;  22.693;  10.089;   9.574;   4.306;   4.163;  -3.871;   1.379;   0.731;;;;;;;;;;;;;;;;;;
2008-03-23T09:25:58.581Z;0;1.2110e+01;0;     0.151;  8142.147;  32298.797; 0;  31255.684;  32298.797;  35590.773;  27448.625; 62;   4.171; 168.422;  93.710; 264.130;  85.392; 264.388;  22.697;   9.996;   9.481;   4.301;   4.161;  -3.871;   1.374;   0.724;;;;;;;;;;;;;;;;;;
2008-03-23T09:26:30.581Z;0;1.1010e+01;0;     0.154;  8156.708;  30894.814; 0;  29798.619;  30894.814;  34154.766;  25998.059; 62;   4.169; 168.658;  93.941; 264.368;  85.620; 264.628;  22.701;   9.903;   9.387;   4.296;   4.158;  -3.872;   1.369;   0.717;;;;;;;;;;;;;;;;;;
2008-03-23T09:27:02.581Z;0;1.0950e+01;0;     0.170;  8171.212;  30813.711; 0;  29710.537;  30813.711;  34075.742;  25904.529; 62;   4.166; 168.894;  94.172; 264.605;  85.848; 264.868;  22.706;   9.810;   9.294;   4.291;   4.156;  -3.872;   1.365;   0.710;;;;;;;;;;;;;;;;;;
2008-03-23T09:27:34.581Z;0;1.1030e+01;0;     0.166;  8171.212;  30921.232; 0;  29822.037;  30921.232;  34186.207;  26014.994; 62;   4.164; 169.129;  94.403; 264.842;  86.075; 265.108;  22.710;   9.717;   9.200;   4.286;   4.153;  -3.872;   1.360;   0.703;;;;;;;;;;;;;;;;;;
2008-03-23T09:28:06.580Z;0;1.1080e+01;0;     0.164;  8185.744;  30991.355; 0;  29890.764;  30991.355;  34262.547;  26076.803; 62;   4.161; 169.365;  94.633; 265.080;  86.302; 265.349;  22.714;   9.624;   9.107;   4.281;   4.151;  -3.873;   1.355;   0.696;;;;;;;;;;;;;;;;;;
2008-03-23T09:28:38.580Z;0;1.2290e+01;0;     0.243;  8185.744;  32527.723; 0;  31480.889;  32527.723;  35838.707;  27652.961; 62;   4.159; 169.600;  94.864; 265.317;  86.529; 265.590;  22.719;   9.530;   9.013;   4.276;   4.148;  -3.873;   1.350;   0.688;;;;;;;;;;;;;;;;;;
2008-03-23T09:29:10.580Z;0;1.2230e+01;0;     0.211;  8200.276;  32453.215; 0;  31400.105;  32453.215;  35766.805;  27566.527; 62;   4.156; 169.835;  95.095; 265.554;  86.755; 265.831;  22.723;   9.437;   8.919;   4.271;   4.146;  -3.873;   1.345;   0.681;;;;;;;;;;;;;;;;;;
2008-03-23T09:29:42.580Z;0;1.3730e+01;0;     0.331;  8200.276;  34264.551; 0;  33268.828;  34264.551;  37620.668;  29420.395; 62;   4.154; 170.071;  95.326; 265.791;  86.981; 266.073;  22.727;   9.343;   8.824;   4.266;   4.144;  -3.873;   1.340;   0.674;;;;;;;;;;;;;;;;;;
2008-03-23T09:30:14.580Z;0;1.3700e+01;0;     0.379;  8214.780;  34239.016; 0;  33238.945;  34239.016;  37599.152;  29384.373; 62;   4.151; 170.306;  95.556; 266.028;  87.210; 266.312;  22.732;   9.249;   8.730;   4.261;   4.141;  -3.874;   1.336;   0.667;;;;;;;;;;;;;;;;;;
2008-03-23T09:30:46.579Z;0;1.4720e+01;0;     0.350;  8214.780;  35418.695; 0;  34452.887;  35418.695;  38804.250;  30589.469; 62;   4.149; 170.541;  95.787; 266.265;  87.441; 266.548;  22.736;   9.155;   8.636;   4.257;   4.139;  -3.874;   1.331;   0.660;;;;;;;;;;;;;;;;;;
2008-03-23T09:31:18.579Z;0;1.5070e+01;0;     0.357;  8229.563;  35821.984; 0;  34863.863;  35821.984;  39220.625;  30991.062; 62;   4.146; 170.776;  96.017; 266.502;  87.672; 266.784;  22.740;   9.061;   8.541;   4.252;   4.136;  -3.874;   1.326;   0.653;;;;;;;;;;;;;;;;;;
2008-03-23T09:31:50.579Z;0;1.5640e+01;0;     0.362;  8229.563;  36451.754; 0;  35510.629;  36451.754;  39863.012;  31633.449; 62;   4.144; 171.012;  96.248; 266.739;  87.904; 267.019;  22.745;   8.967;   8.447;   4.247;   4.134;  -3.874;   1.321;   0.646;;;;;;;;;;;;;;;;;;
2008-03-23T09:32:22.579Z;0;1.5880e+01;0;     0.324;  8244.516;  36726.945; 0;  35789.613;  36726.945;  40148.492;  31903.975; 62;   4.142; 171.247;  96.478; 266.976;  88.136; 267.254;  22.749;   8.873;   8.352;   4.242;   4.132;  -3.875;   1.316;   0.639;;;;;;;;;;;;;;;;;;
2008-03-23T09:32:54.578Z;0;1.6270e+01;0;     0.192;  8244.516;  37150.844; 0;  36224.484;  37150.844;  40580.539;  32336.021; 62;   4.139; 171.482;  96.708; 267.213;  88.368; 267.489;  22.753;   8.778;   8.257;   4.238;   4.129;  -3.875;   1.311;   0.631;;;;;;;;;;;;;;;;;;
2008-03-23T09:33:26.578Z;0;1.5170e+01;0;     0.281;  8259.943;  35933.551; 0;  34971.324;  35933.551;  39344.316;  31084.373; 62;   4.137; 171.717;  96.939; 267.450;  88.601; 267.724;  22.758;   8.683;   8.162;   4.233;   4.127;  -3.875;   1.307;   0.624;;;;;;;;;;;;;;;;;;
2008-03-23T09:33:58.578Z;0;1.5500e+01;0;     0.202;  8259.943;  36309.680; 0;  35357.688;  36309.680;  39728.047;  31468.102; 62;   4.134; 171.952;  97.169; 267.687;  88.834; 267.958;  22.762;   8.589;   8.067;   4.229;   4.124;  -3.875;   1.302;   0.617;;;;;;;;;;;;;;;;;;
2008-03-23T09:34:30.578Z;0;1.5950e+01;0;     0.386;  8274.980;  36803.266; 0;  35860.914;  36803.266;  40236.297;  31961.316; 62;   4.132; 172.187;  97.399; 267.923;  89.067; 268.191;  22.766;   8.494;   7.972;   4.224;   4.122;  -3.875;   1.297;   0.610;;;;;;;;;;;;;;;;;;
2008-03-23T09:35:02.578Z;0;1.6060e+01;0;     0.315;  8290.520;  36929.285; 0;  35986.656;  36929.285;  40369.871;  32079.354; 62;   4.129; 172.422;  97.630; 268.160;  89.300; 268.425;  22.771;   8.399;   7.876;   4.219;   4.120;  -3.875;   1.292;   0.603;;;;;;;;;;;;;;;;;;
2008-03-23T09:35:34.577Z;0;1.4530e+01;0;     0.396;  8290.520;  35220.887; 0;  34231.246;  35220.887;  38626.578;  30336.059; 62;   4.127; 172.656;  97.860; 268.397;  89.533; 268.658;  22.775;   8.304;   7.781;   4.215;   4.117;  -3.876;   1.287;   0.596;;;;;;;;;;;;;;;;;;
2008-03-23T09:36:06.577Z;0;1.5350e+01;0;     0.330;  8306.592;  36147.078; 0;  35179.707;  36147.078;  39577.324;  31270.730; 62;   4.125; 172.891;  98.090; 268.633;  89.767; 268.891;  22.779;   8.209;   7.685;   4.210;   4.115;  -3.876;   1.282;   0.589;;;;;;;;;;;;;;;;;;
2008-03-23T09:36:58.827Z;0;1.5470e+01;0;     0.311;  8306.592;  36281.148; 0;  35317.449;  36281.148;  39714.117;  31407.527; 62;   4.121; 173.275;  98.465; 269.020;  90.149; 269.270;  22.787;   8.053;   7.529;   4.203;   4.111;  -3.876;   1.274;   0.577;;;;;;;;;;;;;;;;;;
2008-03-23T09:37:35.576Z;0;1.6220e+01;0;     0.352;  8322.355;  37111.180; 0;  36165.980;  37111.180;  40565.758;  32243.402; 62;   4.118; 173.544;  98.730; 269.291;  90.418; 269.537;  22.792;   7.943;   7.419;   4.198;   4.109;  -3.876;   1.269;   0.569;;;;;;;;;;;;;;;;;;
2008-03-23T09:37:47.826Z;0;1.6480e+01;0;     0.369;  8322.355;  37389.215; 0;  36451.227;  37389.215;  40849.148;  32526.793; 62;   4.117; 173.634;  98.818; 269.382;  90.508; 269.625;  22.793;   7.907;   7.382;   4.196;   4.108;  -3.876;   1.267;   0.566;;;;;;;;;;;;;;;;;;
2008-03-23T09:38:00.076Z;0;1.5770e+01;0;     0.327;  8338.428;  36620.969; 0;  35659.023;  36620.969;  40071.141;  31732.713; 62;   4.116; 173.724;  98.906; 269.472;  90.598; 269.714;  22.795;   7.870;   7.345;   4.195;   4.107;  -3.876;   1.265;   0.563;;;;;;;;;;;;;;;;;;
2008-03-23T09:38:12.326Z;0;1.5950e+01;0;     0.333;  8338.428;  36818.715; 0;  35862.074;  36818.715;  40272.824;  31934.396; 62;   4.115; 173.814;  98.994; 269.563;  90.688; 269.802;  22.797;   7.834;   7.308;   4.193;   4.106;  -3.876;   1.263;   0.561;;;;;;;;;;;;;;;;;;
2008-03-23T09:38:24.576Z;0;1.8070e+01;0;     0.406;  8338.428;  39068.156; 0;  38167.938;  39068.156;  42564.184;  34225.758; 62;   4.114; 173.903;  99.082; 269.653;  90.778; 269.891;  22.798;   7.797;   7.271;   4.191;   4.105;  -3.876;   1.261;   0.558;;;;;;;;;;;;;;;;;;